N65537 KSNA-KLAX

Flight info

Callsign N65537
Flight time 0h 15m
Altitude VFR/025
Route
Aircraft B350/L-VGDW/C

Departure

Time 2026-04-26 01:50
Airport John Wayne Orange County International Airport (KSNA)

Arrival

Time 2026-04-26 02:06
Airport Los Angeles International Airport (KLAX)
Time Latitude Longitude Altitude Speed Heading
2026-04-26 01:38 33.67195 -117.86733 47 ft 0 kts 205°
2026-04-26 01:40 33.67196 -117.86733 47 ft 0 kts 205°
2026-04-26 01:41 33.67188 -117.86741 47 ft 9 kts 243°
2026-04-26 01:41 33.67256 -117.86739 47 ft 25 kts 31°
2026-04-26 01:41 33.67414 -117.86646 47 ft 17 kts 26°
2026-04-26 01:41 33.67535 -117.86570 47 ft 23 kts 25°
2026-04-26 01:42 33.67689 -117.86474 47 ft 28 kts 28°
2026-04-26 01:42 33.67871 -117.86357 47 ft 24 kts 28°
2026-04-26 01:42 33.68020 -117.86263 47 ft 26 kts 28°
2026-04-26 01:42 33.68190 -117.86156 47 ft 26 kts 26°
2026-04-26 01:43 33.68228 -117.86105 47 ft 9 kts 220°
2026-04-26 01:43 33.68157 -117.86177 47 ft 16 kts 210°
2026-04-26 01:43 33.68061 -117.86256 47 ft 18 kts 255°
2026-04-26 01:43 33.68112 -117.86414 48 ft 12 kts 300°
2026-04-26 01:44 33.68119 -117.86428 48 ft 0 kts 300°
2026-04-26 01:46 33.68138 -117.86478 48 ft 21 kts 292°
2026-04-26 01:46 33.68108 -117.86544 48 ft 0 kts 206°
2026-04-26 01:50 33.67996 -117.86616 49 ft 65 kts 209°
2026-04-26 01:50 33.67337 -117.87019 108 ft 141 kts 207°
2026-04-26 01:50 33.66395 -117.87624 521 ft 164 kts 210°
2026-04-26 01:50 33.65466 -117.88475 1108 ft 169 kts 232°
2026-04-26 01:51 33.65110 -117.89779 1573 ft 176 kts 271°
2026-04-26 01:51 33.65403 -117.91177 1724 ft 174 kts 295°
2026-04-26 01:51 33.66270 -117.92152 1957 ft 173 kts 329°
2026-04-26 01:51 33.67442 -117.92469 1867 ft 173 kts 351°
2026-04-26 01:52 33.68598 -117.92564 2119 ft 165 kts 348°
2026-04-26 01:52 33.69349 -117.93343 2191 ft 153 kts 277°
2026-04-26 01:52 33.69055 -117.94579 1942 ft 168 kts 229°
2026-04-26 01:52 33.68258 -117.95682 1700 ft 181 kts 231°
2026-04-26 01:53 33.67446 -117.96794 1759 ft 178 kts 231°
2026-04-26 01:53 33.66625 -117.97948 1782 ft 186 kts 232°
2026-04-26 01:53 33.65794 -117.99151 1811 ft 184 kts 234°
2026-04-26 01:53 33.65012 -118.00329 1833 ft 182 kts 236°
2026-04-26 01:54 33.64415 -118.01644 1833 ft 178 kts 253°
2026-04-26 01:54 33.64666 -118.03014 1835 ft 182 kts 314°
2026-04-26 01:54 33.65860 -118.03615 1736 ft 191 kts 338°
2026-04-26 01:54 33.67095 -118.04146 1712 ft 187 kts 329°
2026-04-26 01:55 33.68347 -118.04563 1733 ft 192 kts 346°
2026-04-26 01:55 33.69669 -118.04749 1821 ft 191 kts 351°
2026-04-26 01:55 33.70993 -118.04872 1885 ft 190 kts 346°
2026-04-26 01:55 33.72230 -118.05348 1983 ft 186 kts 342°
2026-04-26 01:56 33.73532 -118.05433 2076 ft 188 kts 351°
2026-04-26 01:56 33.74788 -118.05796 2148 ft 186 kts 341°
2026-04-26 01:56 33.76031 -118.06241 2214 ft 188 kts 339°
2026-04-26 01:56 33.77300 -118.06713 2180 ft 193 kts 340°
2026-04-26 01:57 33.78589 -118.07198 2166 ft 195 kts 339°
2026-04-26 01:57 33.79871 -118.07682 2166 ft 196 kts 339°
2026-04-26 01:57 33.81161 -118.08168 2160 ft 196 kts 339°
2026-04-26 01:57 33.82477 -118.08673 2161 ft 196 kts 339°
2026-04-26 01:58 33.82917 -118.08842 2153 ft 196 kts 339°
2026-04-26 01:58 33.84401 -118.09421 2194 ft 195 kts 339°
2026-04-26 01:58 33.85722 -118.09807 2174 ft 198 kts 352°
2026-04-26 01:58 33.87135 -118.09655 2023 ft 209 kts 14°
2026-04-26 01:59 33.88419 -118.08794 1877 ft 216 kts 44°
2026-04-26 01:59 33.89421 -118.07550 2136 ft 201 kts 34°
2026-04-26 01:59 33.90700 -118.07031 2121 ft 184 kts 358°
2026-04-26 01:59 33.91850 -118.07473 1990 ft 171 kts 324°
2026-04-26 02:00 33.92645 -118.08397 2197 ft 144 kts 307°
2026-04-26 02:00 33.93217 -118.09334 2255 ft 140 kts 300°
2026-04-26 02:00 33.93742 -118.10447 2135 ft 167 kts 292°
2026-04-26 02:00 33.94096 -118.11807 2110 ft 181 kts 285°
2026-04-26 02:01 33.94449 -118.13339 1991 ft 195 kts 285°
2026-04-26 02:01 33.94833 -118.14929 1900 ft 201 kts 286°
2026-04-26 02:01 33.95279 -118.16552 1814 ft 205 kts 288°
2026-04-26 02:01 33.95718 -118.18158 1868 ft 199 kts 282°
2026-04-26 02:02 33.95668 -118.19830 1661 ft 205 kts 261°
2026-04-26 02:02 33.95454 -118.21502 1459 ft 199 kts 262°
2026-04-26 02:02 33.95295 -118.23149 1248 ft 196 kts 265°
2026-04-26 02:02 33.95151 -118.24714 1170 ft 176 kts 263°
2026-04-26 02:03 33.95002 -118.26067 1108 ft 158 kts 263°
2026-04-26 02:03 33.94852 -118.27337 1034 ft 147 kts 262°
2026-04-26 02:03 33.94735 -118.28568 991 ft 156 kts 264°
2026-04-26 02:03 33.94696 -118.28979 1052 ft 159 kts 264°
2026-04-26 02:04 33.94584 -118.30016 1062 ft 182 kts 262°
2026-04-26 02:04 33.94415 -118.31518 1177 ft 170 kts 265°
2026-04-26 02:04 33.94308 -118.32776 1179 ft 130 kts 264°
2026-04-26 02:04 33.94212 -118.33767 1023 ft 111 kts 264°
2026-04-26 02:05 33.94124 -118.34595 825 ft 102 kts 262°
2026-04-26 02:05 33.94016 -118.35552 689 ft 124 kts 264°
2026-04-26 02:05 33.93909 -118.36598 514 ft 127 kts 264°
2026-04-26 02:05 33.93806 -118.37624 291 ft 115 kts 263°
2026-04-26 02:06 33.93717 -118.38510 114 ft 99 kts 263°
2026-04-26 02:06 33.93646 -118.39179 104 ft 59 kts 262°
2026-04-26 02:06 33.93550 -118.39371 101 ft 17 kts 179°
2026-04-26 02:06 33.93528 -118.39372 99 ft 0 kts 195°
2026-04-26 02:07 33.93522 -118.39375 98 ft 5 kts 206°
2026-04-26 02:07 33.93494 -118.39451 97 ft 14 kts 267°
2026-04-26 02:07 33.93483 -118.39584 97 ft 18 kts 257°
2026-04-26 02:07 33.93464 -118.39741 97 ft 17 kts 261°
2026-04-26 02:08 33.93413 -118.39814 94 ft 15 kts 175°
2026-04-26 02:08 33.93307 -118.39845 94 ft 14 kts 170°
2026-04-26 02:08 33.93274 -118.39865 94 ft 6 kts 283°
2026-04-26 02:08 33.93319 -118.39918 93 ft 13 kts 340°
2026-04-26 02:09 33.93382 -118.39932 94 ft 5 kts 14°
2026-04-26 02:09 33.93387 -118.39930 96 ft 0 kts 32°
2026-04-26 02:09 33.93388 -118.39929 96 ft 0 kts 33°
2026-04-26 02:09 33.93387 -118.39929 96 ft 0 kts 32°